EW1732 Weather Reports


Display with metric or nautical units.
time (UTC)temp
F
wind
direction
speed
MPH
gust
MPH
rain 1hr
in
rain 24hr
in
rain mn
in
humidity
%
barometer
mb
20260904193342 83 319 0.0 5.0 0.00 0.29 0.28 57 1010.5
20260904192333 83 293 0.0 0.0 0.00 0.29 0.28 61 1010.5
20260904191311 82 239 1.0 9.0 0.00 0.29 0.28 58 1010.6
20260904190255 83 319 0.0 7.0 0.00 0.29 0.28 57 1010.9
20260904184055 83 224 0.0 2.0 0.00 0.29 0.28 58 1011.1
20260904183100 82 328 0.0 3.0 0.00 0.29 0.28 60 1011.1
20260904182048 83 330 0.0 3.0 0.00 0.29 0.28 63 1011.1
20260904181056 83 226 0.0 2.0 0.00 0.29 0.28 61 1011.1
20260904180033 82 266 1.0 5.0 0.00 0.29 0.28 61 1010.9
20260904175005 82 41 0.0 8.0 0.00 0.29 0.28 60 1011.2
20260904174024 82 212 0.0 9.0 0.00 0.29 0.28 60 1011.1
20260904173026 81 240 0.0 9.0 0.00 0.29 0.28 63 1011.0
20260904172041 80 165 0.0 9.0 0.00 0.29 0.28 62 1011.0
20260904171016 80 205 0.0 5.0 0.00 0.29 0.28 63 1011.1
20260904170003 81 149 1.0 3.0 0.00 0.29 0.28 66 1011.1
20260904163845 80 319 1.0 5.0 0.00 0.29 0.28 64 1011.2
20260904162826 81 208 0.0 3.0 0.00 0.29 0.28 63 1011.2
20260904161810 80 217 0.0 1.0 0.00 0.29 0.28 66 1011.3
20260904154508 78 57 0.0 9.0 0.00 0.29 0.28 69 1011.8
20260904153511 77 221 1.0 9.0 0.00 0.29 0.28 74 1011.8
20260904150216 77 229 0.0 9.0 0.00 0.29 0.28 83 1011.9
20260904145204 75 238 0.0 8.0 0.00 0.29 0.28 88 1011.9
20260904143053 74 245 0.0 4.0 0.00 0.29 0.28 90 1011.8
20260904142036 73 215 0.0 4.0 0.00 0.29 0.28 91 1011.8
20260904141024 73 235 0.0 4.0 0.00 0.29 0.28 93 1011.7
20260904140022 72 107 0.0 5.0 0.00 0.29 0.28 95 1011.7
20260904135019 72 220 0.0 5.0 0.00 0.29 0.28 96 1011.6
20260904134004 72 231 0.0 0.0 0.00 0.29 0.28 98 1011.5
20260904132944 71 245 0.0 5.0 0.00 0.29 0.28 98 1011.5
20260904131937 71 221 0.0 4.0 0.00 0.29 0.28 98 1011.6
20260904130950 71 229 0.0 4.0 0.00 0.29 0.28 99 1011.5
20260904125951 71 255 0.0 0.0 0.00 0.29 0.28 99 1011.6
20260904125012 71 215 0.0 4.0 0.00 0.29 0.28 99 1011.6
20260904124012 70 147 0.0 0.0 0.00 0.29 0.28 99 1011.4
20260904122947 70 193 0.0 0.0 0.00 0.29 0.28 99 1011.5
20260904121941 69 179 0.0 0.0 0.00 0.29 0.28 99 1011.5
20260904120917 69 179 0.0 0.0 0.00 0.29 0.28 99 1011.5
20260904114758 69 223 0.0 0.0 0.00 0.29 0.28 99 1011.6
20260904113803 69 154 0.0 0.0 0.00 0.29 0.28 99 1011.6
20260904112827 68 242 0.0 0.0 0.00 0.27 0.27 99 1011.4
20260904111824 68 246 0.0 0.0 0.00 0.27 0.27 98 1011.2
20260904105626 68 256 0.0 0.0 0.00 0.27 0.27 99 1011.1
20260904104557 68 219 0.0 0.0 0.00 0.27 0.27 98 1011.1
20260904103533 68 211 0.0 0.0 0.00 0.27 0.27 98 1010.9
20260904102511 68 211 0.0 0.0 0.00 0.27 0.27 98 1010.9
20260904101453 68 226 0.0 0.0 0.00 0.27 0.27 98 1010.7
20260904100423 68 226 0.0 0.0 0.00 0.27 0.27 98 1010.5
20260904095355 68 176 0.0 0.0 0.00 0.27 0.27 98 1010.4
20260904094355 69 176 0.0 0.0 0.00 0.27 0.27 98 1010.5
20260904093420 69 176 0.0 0.0 0.00 0.27 0.27 98 1010.5
20260904092406 69 176 0.0 0.0 0.00 0.27 0.27 98 1010.6
20260904091426 69 178 0.0 0.0 0.00 0.27 0.27 98 1010.4
20260904090409 69 178 0.0 0.0 0.00 0.27 0.27 98 1010.1
20260904085343 69 178 0.0 0.0 0.00 0.27 0.27 98 1010.2
20260904084325 69 178 0.0 0.0 0.00 0.27 0.27 98 1009.9
20260904083328 70 178 0.0 0.0 0.00 0.27 0.27 98 1009.9
20260904082332 70 178 0.0 0.0 0.00 0.27 0.27 98 1009.7
20260904080234 70 193 0.0 0.0 0.08 0.27 0.27 98 1009.6
20260904075209 70 245 0.0 0.0 0.15 0.26 0.27 98 1010.0
20260904074218 70 223 0.0 8.0 0.12 0.24 0.25 98 1010.3
20260904073153 71 199 0.0 8.0 0.36 0.22 0.21 98 1010.6
20260904072200 71 169 0.0 3.0 3.16 0.10 0.10 99 1011.3
20260904071140 71 331 0.0 0.0 0.00 0.01 0.01 98 1010.5
20260904070134 71 331 0.0 0.0 0.00 0.00 0.00 98 1010.2
20260904065152 71 331 0.0 0.0 0.00 0.00 0.00 98 1010.6
20260904064125 71 331 0.0 0.0 0.00 0.00 0.00 98 1010.7
20260904063144 71 330 0.0 0.0 0.00 0.00 0.00 98 1010.7
20260904062121 71 331 0.0 0.0 0.00 0.00 0.00 98 1010.7
20260904061125 71 331 0.0 0.0 0.00 0.00 0.00 98 1010.8
20260904060054 71 331 0.0 0.0 0.00 0.00 0.00 98 1011.1
20260904055104 71 330 0.0 0.0 0.00 0.01 0.00 98 1011.3
20260904054046 71 331 0.0 0.0 0.00 0.03 0.00 98 1011.1
20260904053025 71 331 0.0 0.0 0.00 0.06 0.00 98 1011.2
20260904052001 71 331 0.0 0.0 0.00 0.10 0.00 98 1011.2
20260904050945 71 331 0.0 0.0 0.00 0.16 0.00 98 1011.2
20260904045922 71 331 0.0 0.0 0.00 0.28 0.00 98 1011.2
20260904044851 71 331 0.0 0.0 0.00 0.29 0.00 98 1011.4
20260904043852 71 331 0.0 0.0 0.00 0.29 0.00 98 1011.6
20260904042859 71 331 0.0 0.0 0.00 0.29 0.00 98 1011.6
20260904041908 71 331 0.0 0.0 0.00 0.29 0.00 98 1011.8
20260904040913 71 331 0.0 0.0 0.00 0.29 0.00 98 1011.9
20260904035904 71 330 0.0 0.0 0.00 0.29 0.30 98 1011.8
20260904034855 71 331 0.0 0.0 0.00 0.29 0.30 98 1011.7
20260904033905 71 330 0.0 0.0 0.00 0.29 0.30 98 1011.7
20260904032842 71 331 0.0 0.0 0.00 0.29 0.30 98 1011.7
20260904030705 71 331 0.0 0.0 0.00 0.29 0.30 98 1012.1
20260904025726 71 331 0.0 0.0 0.00 0.29 0.30 98 1012.2
20260904024735 71 331 0.0 0.0 0.00 0.29 0.30 97 1012.3
20260904023728 71 331 0.0 0.0 0.00 0.29 0.30 97 1012.3
20260904022711 71 331 0.0 0.0 0.00 0.29 0.30 97 1012.3
20260904021715 72 331 0.0 0.0 0.00 0.29 0.30 97 1012.4
20260904020729 72 331 0.0 0.0 0.00 0.29 0.30 97 1012.5
20260904015733 72 331 0.0 0.0 0.00 0.29 0.30 97 1012.6
20260904014722 72 330 0.0 0.0 0.00 0.29 0.30 97 1012.5
20260904013726 72 330 0.0 0.0 0.00 0.29 0.30 97 1012.6
20260904012726 72 331 0.0 0.0 0.00 0.29 0.30 97 1012.7
20260904011722 72 331 0.0 0.0 0.00 0.29 0.30 96 1012.8
20260904004350 73 331 0.0 0.0 0.00 0.29 0.30 96 1012.5
20260904003346 73 331 0.0 0.0 0.00 0.29 0.30 96 1012.4
20260904002315 73 330 0.0 0.0 0.00 0.29 0.30 95 1012.5
20260904001327 74 330 0.0 0.0 0.00 0.29 0.30 95 1012.4
20260904000336 74 331 0.0 0.0 0.00 0.29 0.30 95 1012.4
20260903234153 75 331 0.0 0.0 0.00 0.29 0.30 93 1011.9
20260903233154 75 331 0.0 0.0 0.00 0.29 0.30 93 1012.0
20260903232144 76 331 0.0 0.0 0.00 0.29 0.30 92 1012.0
20260903231202 76 331 0.0 0.0 0.00 0.29 0.30 91 1011.9
20260903230150 77 331 0.0 0.0 0.00 0.29 0.30 90 1012.0
20260903225139 78 331 0.0 0.0 0.00 0.29 0.30 89 1011.8
20260903224126 78 331 0.0 0.0 0.00 0.29 0.30 89 1012.0
20260903223127 79 330 0.0 0.0 0.00 0.30 0.30 88 1012.0
20260903222059 79 330 0.0 0.0 0.00 0.30 0.30 87 1012.2
20260903221041 79 330 0.0 0.0 0.00 0.30 0.30 87 1012.2
20260903220010 80 330 0.0 0.0 0.00 0.30 0.30 85 1012.3
20260903215024 81 331 0.0 0.0 0.00 0.30 0.30 83 1012.3
20260903214041 82 331 0.0 0.0 0.00 0.30 0.30 81 1012.2
20260903213009 83 330 0.0 0.0 0.00 0.30 0.30 77 1012.2
20260903212033 85 332 0.0 1.0 0.00 0.30 0.30 75 1012.1
20260903211006 84 293 0.0 0.0 0.00 0.30 0.30 75 1012.0
20260903210004 84 237 0.0 0.0 0.00 0.30 0.30 75 1012.0
20260903204958 82 246 0.0 0.0 0.00 0.30 0.30 79 1012.0
20260903202811 82 275 0.0 0.0 0.00 0.30 0.30 77 1012.3
20260903201744 82 246 0.0 0.0 0.00 0.30 0.30 79 1012.4
20260903200711 80 288 0.0 0.0 0.00 0.30 0.30 81 1012.4
20260903195642 81 288 0.0 0.0 0.00 0.30 0.30 81 1012.6
20260903194651 80 316 0.0 0.0 0.00 0.30 0.30 83 1012.3